Regional Weather Roundup
Issued by NWS Wilmington, NC

Home | Current Version | Previous Version | Text Only | Print | Product List | Glossary On
Versions: 1 2 3 4 5 6 7 8 9 10 11 12 13 14 15 16 17 18 19 20 21 22 23 24 25 26 27 28 29 30 31 32 33 34 35 36 37 38 39 40 41 42 43 44 45 46 47 48 49 50
000
ASUS42 KILM 220810
RWRILM
RWRILM
REGIONAL HOURLY WEATHER ROUNDUP
NATIONAL WEATHER SERVICE WILMINGTON NC
300 AM EST MON DEC 22 2014

NOTE: "FAIR" INDICATES FEW OR NO CLOUDS BELOW 12,000 FEET WITH NO
SIGNIFICANT WEATHER AND/OR OBSTRUCTIONS TO VISIBILITY.

...............WFO WILMINGTON COUNTY WARNING AREA...............

......COASTAL NC AND SC COUNTIES......

CITY           SKY/WX    TMP DP  RH WIND       PRES   REMARKS
WILMINGTON     CLOUDY    45  43  93 N8        30.08F
SOUTHPORT      CLOUDY    48  47  96 NE9       30.07R
N MYRTLE BEACH LGT RAIN  45  44  97 N6        30.07F
MYRTLE BEACH   CLOUDY    46  43  87 N6        30.08F

......INLAND NC AND SC COUNTIES.......

CITY           SKY/WX    TMP DP  RH WIND       PRES   REMARKS
LUMBERTON      LGT RAIN  43  40  89 NE12      30.09F
ELIZABETHTOWN  LGT RAIN  42  42 100 N6        30.11F
WHITEVILLE     CLOUDY    43  42  95 N6        30.09F FOG
FLORENCE       CLOUDY    43  40  89 NE10      30.09F FOG
DARLINGTON     CLOUDY    43  39  87 N12       30.13R

....................REST OF NORTH CAROLINA......................

.........EASTERN NC.........

CITY           SKY/WX    TMP DP  RH WIND       PRES   REMARKS
CAPE HATTERAS  LGT RAIN  51  51 100 NE12G18   30.13F FOG
JACKSONVILLE   CLOUDY    43  37  81 N9        30.11F
MOREHEAD CITY  CLOUDY    48  48 100 NE9       30.10F
KENANSVILLE    CLOUDY    40  39  97 NE6       30.13F FOG
NEW BERN       LGT RAIN  46  42  86 NE9       30.13F
ELIZABETH CITY CLOUDY    48  39  71 NE15      30.21S

.........CENTRAL NC.........

CITY           SKY/WX    TMP DP  RH WIND       PRES   REMARKS
RALEIGH DURHAM LGT RAIN  37  33  85 NE10      30.19S WCI  30
ROCKY MOUNT    LGT RAIN  38  35  89 N13       30.20S FOG     WCI  30
ROANOKE RAPIDS NOT AVBL
FAYETTEVILLE   LGT RAIN  41  39  93 NE13      30.12F
HOFFMAN        RAIN      41  40  98 N10       30.14F FOG

.........WESTERN NC.........

CITY           SKY/WX    TMP DP  RH WIND       PRES   REMARKS
CHARLOTTE      LGT RAIN  43  39  87 N10       30.14F FOG
GREENSBORO     LGT RAIN  38  33  82 NE10      30.17F WCI  31
HICKORY        NOT AVBL
BOONE          NOT AVBL
ASHEVILLE      NOT AVBL

.....................REST OF SOUTH CAROLINA.....................

.........EASTERN SC.........

CITY           SKY/WX    TMP DP  RH WIND       PRES   REMARKS
CHARLESTON     CLOUDY    47  45  93 N7        30.07R
BEAUFORT MCAS  CLOUDY    48  46  93 N8        30.05F
HILTON HEAD    CLOUDY    50  48  93 N8        30.05F FOG

.........CENTRAL SC.........

CITY           SKY/WX    TMP DP  RH WIND       PRES   REMARKS
COLUMBIA       CLOUDY    46  43  89 E6        30.10S FOG
ORANGEBURG     CLOUDY    45  42  89 NE9       30.08F
SUMTER SHAW    DRIZZLE   43  42  95 N8        30.10R

.........WESTERN SC.........

CITY           SKY/WX    TMP DP  RH WIND       PRES   REMARKS
GREENVILLE     NOT AVBL
ROCK HILL      LGT RAIN  42  41  96 NE7       30.13F FOG
ANDERSON       LGT RAIN  44  41  89 NE9       30.10F
CLEMSON        NOT AVBL
GREENWOOD      CLOUDY    44  42  93 NE8       30.11F FOG


...................COASTAL AND OFFSHORE REPORTS..................

................LOCAL PIERS AND NC RESERVE................


STATION/POSITION TIME  SKY/WX   TEMP    WIND        PRES    VSBY
                                AIR SEA DIR/SP/G
                 (UTC)          (F)     (DEG/KT/KT) (MB)    (MI)
JOHNY MRCER PIER 0800            47 55   20/ 14/ 22 1017.5R
NC RESRV MASNBRO 0700            47      30/ 11     1019.0S
OCEAN CREST PIER NOT AVBL
SPRINGMAID  PIER 0800            45 52  340/  6/  7 1018.4F


................COASTAL AND OFFSHORE BUOYS................


STATION/POSITION TIME  SKY/WX   TEMP    WIND        PRES    VSBY
                                AIR SEA DIR/SP/G
                 (UTC)          (F)     (DEG/KT/KT) (MB)    (MI)
DIMNDSHOAL 41025 0800            63                 1019.1F
WVE H/P(F/S)=  5/ 7

CAPE LOOKOUT     0700            49      30/ 23/ 26 1019.4F
ONSLOW BAY 41036 0800            54 60   50/ 21/ 27 1017.9F
WVE H/P(F/S)=  7/ 6 WND WVE H/P(F/S)=  7/ 6 SWL H/P/D(F/S/D)=  2/120/ 9

5 WRITEBCH 41038 NOT AVBL
MASONBORO  41110 0800               54                N/A
WVE H/P(F/S)=  5/ 6 WND WVE H/P(F/S)=  5/ 6

WILM HARBR 41108 0800               54                N/A
WVE H/P(F/S)=  4/ 8 WND WVE H/P(F/S)=  5/ 8

27WRITEBCH 41037 0700            52 62   70/ 21/ 25 1019.8F
FRYING PAN 41013 0800            62 69   50/ 19/ 21 1017.1F
WVE H/P(F/S)=  7/ 8 WND WVE H/P(F/S)=  7/ 8 SWL H/P/D(F/S/D)=  2/200/12

SUNST NRSH 41024 0700            47      50/ 12/ 14   N/A
CAPRS NRSH 41029 0700            50      40/ 16/ 17   N/A
EDISTO     41004 0800            65 73   20/ 17/ 21 1015.3F
WVE H/P(F/S)=  7/ 7 WND WVE H/P(F/S)=  7/ 7 SWL H/P/D(F/S/D)=  3/ 9



..........OFFSHORE BUOYS BEYOND 100 NM OFFSHORE...........
.....IN A TRIANGLE---HAT TO BERMUDA TO BAHAMAS TO HAT.....


STATION/POSITION TIME  SKY/WX   TEMP    WIND        PRES    VSBY
                                AIR SEA DIR/SP/G
                 (UTC)          (F)     (DEG/KT/KT) (MB)    (MI)
150E HAT   41001 NOT AVBL
W BERMUDA  41048 0716            68 73   80/ 17/ 19 1019.7F
WVE H/P(F/S)=  4/ 5 WND WVE H/P(F/S)=  3/ 5 SWL H/P/D(F/S/D)=  2/ 90/ 9

ATLANTIC S 41049 0656            73 77   CALM  /  2 1020.6F
WVE H/P(F/S)=  4/ 9

E BAHAMAS  41046 0654            77 80  100/ 12/ 14 1018.6F
WVE H/P(F/S)=  4/ 8 WND WVE H/P(F/S)=  2/ 4 SWL H/P/D(F/S/D)=  3/ 50/ 8

NE BAHAMAS 41047 0708            76 78  160/ 14/ 16 1018.9F
WVE H/P(F/S)=  4/ 9 WND WVE H/P(F/S)=  2/ 6 SWL H/P/D(F/S/D)=  3/ 90/ 9

120E CANVRL41010 0800            75 77  190/ 14/ 17 1017.1R
WVE H/P(F/S)=  3/ 7 WND WVE H/P(F/S)=  2/ 4 SWL H/P/D(F/S/D)=  3/ 30/ 7


END



USA.gov is the U.S. government's official web portal to all federal, state and local government web resources and services.